Location: Black Creek
(40.9000°S, 175.5500°E)
Time: 20:17:05
(UTC+00:00)

Altair - All Passes

Search period start: 07 November 2024 00:00
Search period end: 17 November 2024 00:00
Orbit: 1501 x 1682 km, 47.2° (Epoch: 06 November)

Date Brightness Start Highest point End Pass type
(mag) Time Alt. Az. Time Alt. Az. Time Alt. Az.
07 Nov - 10:13:55 10° N 10:22:01 29° NE 10:30:12 10° ESE visible
07 Nov - 12:15:42 10° NW 12:25:50 79° NNE 12:36:05 10° ESE visible
07 Nov - 14:21:07 10° W 14:31:17 64° S 14:41:21 10° ESE visible
07 Nov - 16:27:04 10° WSW 16:37:18 69° SSE 16:47:16 10° E visible
07 Nov - 18:32:21 10° WSW 18:42:19 64° NW 18:51:54 10° NE daylight
07 Nov - 20:39:18 10° W 20:45:36 19° NW 20:51:46 10° NNW daylight
08 Nov - 09:49:10 10° N 09:56:53 26° NE 10:04:44 10° ESE visible
08 Nov - 11:50:31 10° NW 12:00:35 75° NE 12:10:48 10° ESE visible
08 Nov - 13:55:46 10° W 14:05:56 65° S 14:16:03 10° ESE visible
08 Nov - 16:01:46 10° WSW 16:11:59 67° SSE 16:21:57 10° E visible
08 Nov - 18:07:03 10° WSW 18:17:07 68° NW 18:26:47 10° NE daylight
08 Nov - 20:13:39 10° W 20:20:31 21° NW 20:27:14 10° N daylight
09 Nov - 09:24:29 10° N 09:31:46 24° NE 09:39:11 10° E visible
09 Nov - 11:25:21 10° NW 11:35:21 71° NE 11:45:31 10° ESE visible
09 Nov - 13:30:25 10° W 13:40:35 66° SSW 13:50:45 10° ESE visible
09 Nov - 15:36:26 10° WSW 15:46:39 66° SSE 15:56:38 10° E visible
09 Nov - 17:41:46 10° WSW 17:51:54 72° NW 18:01:40 10° NE daylight
09 Nov - 19:48:04 10° WSW 19:55:26 24° NW 20:02:38 10° N daylight
10 Nov - 08:59:52 10° N 09:06:40 21° NE 09:13:36 10° E visible
10 Nov - 11:00:12 10° NW 11:10:06 67° NE 11:20:13 10° ESE visible
10 Nov - 13:05:04 10° W 13:15:15 68° SSW 13:25:27 10° ESE visible
10 Nov - 15:11:07 10° WSW 15:21:18 64° S 15:31:18 10° E visible
10 Nov - 17:16:28 10° WSW 17:26:40 77° NNW 17:36:30 10° NE daylight
10 Nov - 19:22:32 10° WSW 19:30:20 27° NW 19:37:57 10° N daylight
11 Nov - 08:35:20 10° NNE 08:41:35 19° NE 08:47:55 10° E visible
11 Nov - 10:35:05 10° NW 10:44:54 62° NE 10:54:55 10° ESE visible
11 Nov - 12:39:45 10° W 12:49:55 70° SSW 13:00:09 10° ESE visible
11 Nov - 14:45:47 10° WSW 14:55:57 63° S 15:05:59 10° E visible
11 Nov - 16:51:11 10° WSW 17:01:25 81° NNW 17:11:19 10° NE daylight
11 Nov - 18:57:03 10° WSW 19:05:14 29° NW 19:13:12 10° N daylight
12 Nov - 08:10:56 10° NNE 08:16:30 17° ENE 08:22:08 10° E visible
12 Nov - 10:09:59 10° NW 10:19:41 58° NE 10:29:37 10° ESE visible
12 Nov - 12:14:25 10° WNW 12:24:35 72° SSW 12:34:51 10° ESE visible
12 Nov - 14:20:26 10° WSW 14:30:36 63° S 14:40:39 10° E visible
12 Nov - 16:25:53 10° WSW 16:36:10 85° NNW 16:46:09 10° ENE daylight
12 Nov - 18:31:35 10° WSW 18:40:06 32° NW 18:48:23 10° N daylight
13 Nov - 07:46:43 10° NNE 07:51:26 14° ENE 07:56:11 10° E visible
13 Nov - 09:44:56 10° NNW 09:54:29 54° NE 10:04:19 10° ESE visible
13 Nov - 11:49:06 10° WNW 11:59:15 75° SSW 12:09:33 10° ESE visible
13 Nov - 13:55:06 10° WSW 14:05:15 62° S 14:15:19 10° E visible
13 Nov - 16:00:35 10° WSW 16:10:54 89° NNW 16:20:56 10° ENE visible
13 Nov - 18:06:10 10° WSW 18:14:58 35° NW 18:23:32 10° NNE daylight
14 Nov - 07:22:47 10° NE 07:26:22 12° ENE 07:29:58 10° E daylight
14 Nov - 09:19:53 10° NNW 09:29:18 50° NE 09:38:59 10° ESE visible
14 Nov - 11:23:48 10° WNW 11:33:57 77° SSW 11:44:15 10° ESE visible
14 Nov - 13:29:46 10° WSW 13:39:53 61° S 13:49:58 10° E visible
14 Nov - 15:35:18 10° WSW 15:45:37 88° SSE 15:55:41 10° ENE visible
14 Nov - 17:40:46 10° WSW 17:49:50 39° NW 17:58:39 10° NNE daylight
15 Nov - 06:59:42 10° NE 07:01:18 10° ENE 07:02:56 10° ENE daylight
15 Nov - 08:54:52 10° NNW 09:04:08 47° NE 09:13:39 10° ESE visible
15 Nov - 10:58:32 10° WNW 11:08:38 80° SSW 11:18:57 10° ESE visible
15 Nov - 13:04:25 10° W 13:14:32 61° S 13:24:38 10° E visible
15 Nov - 15:10:01 10° WSW 15:20:20 84° SSE 15:30:26 10° ENE visible
15 Nov - 17:15:24 10° WSW 17:24:41 42° NW 17:33:42 10° NNE daylight
16 Nov - 08:29:54 10° NNW 08:38:58 43° NE 08:48:17 10° ESE visible
16 Nov - 10:33:16 10° WNW 10:43:20 83° SSW 10:53:40 10° ESE visible
16 Nov - 12:39:05 10° W 12:49:10 61° S 12:59:17 10° E visible
16 Nov - 14:44:43 10° WSW 14:55:03 81° SSE 15:05:10 10° ENE visible
16 Nov - 16:50:02 10° WSW 16:59:31 45° NW 17:08:44 10° NNE daylight
